Location: Unspecified
(43.4680°N, 87.1740°E)
Time: 21:26:01
(UTC+00:00)

Cosmos 1733 - Pass Details

Date: 17 April 2021
Orbit: 503 x 522 km, 82.5° (Epoch: 11 May)

Event Time Altitude Azimuth Distance (km) Brightness Sun altitude
Rises 22:28:40 0° 342° (NNW) 2,619 6.9 -10.3°
Reaches altitude 10° 22:30:56 10° 333° (NNW) 1,726 5.8 -9.9°
Maximum altitude 22:34:20 33° 268° (W) 872 3.9 -9.3°
Drops below altitude 10° 22:37:42 10° 204° (SSW) 1,708 5.4 -8.8°
Sets 22:39:56 0° 194° (SSW) 2,586 6.4 -8.4°
